Hourly Data Report for May 26, 2012

All times are specified in Local Standard Time (LST). Add 1 hour to adjust for Daylight Saving Time where and when it is observed.

THUNDER BAY
ONTARIO

48°22'19.000" N
89°19'18.000" W
199.30 m
6048260
71072
YQT

Download Data

Hourly Data (May 2012)
Hourly Data Report for May 26, 2012
Temp Definition
°C
Dew Point Temp Definition
°C
Rel Hum Definition
%
Wind Dir Definition
10's deg

Wind Spd Definition
km/h
Visibility Definition
km
Stn Press Definition
kPa
Hmdx Definition


Wind Chill Definition


Weather Definition


TIME
00:00 Legend Double Dagger 10.5 9.3 92 8 9 16.1 99.67     LegendNANA
01:00 Legend Double Dagger 10.2 8.2 87 8 11 16.1 99.73     LegendNANA
02:00 Legend Double Dagger 8.6 7.4 92 5 5 16.1 99.74     LegendNANA
03:00 Legend Double Dagger 7.1 6.4 95   0 16.1 99.82     LegendNANA
04:00 Legend Double Dagger 7.2 6.6 96   0 16.1 99.83     LegendNANA
05:00 Legend Double Dagger 7.0 6.3 95 7 5 16.1 99.86     LegendNANA
06:00 Legend Double Dagger 7.2 6.3 94 10 5 16.1 99.97     LegendNANA
07:00 Legend Double Dagger 9.5 7.6 88 6 5 16.1 100.00     LegendNANA
08:00 Legend Double Dagger 10.0 6.8 80 9 13 16.1 99.98     LegendNANA
09:00 Legend Double Dagger 10.5 6.6 77 9 9 16.1 100.10     LegendNANA
10:00 Legend Double Dagger 11.5 6.5 71 9 18 16.1 100.07     LegendNANA
11:00 Legend Double Dagger 11.2 6.3 71 10 18 16.1 100.11     LegendNANA
12:00 Legend Double Dagger 12.5 6.8 68 7 17 16.1 100.11     LegendNANA
13:00 Legend Double Dagger 13.2 7.3 67 5 11 16.1 100.14     LegendNANA
14:00 Legend Double Dagger 13.7 7.5 66 10 17 16.1 100.12     LegendNANA
15:00 Legend Double Dagger 13.4 7.8 69 9 21 16.1 99.92     LegendNANA
16:00 Legend Double Dagger 15.0 7.8 62 10 18 16.1 99.89     LegendNANA
17:00 Legend Double Dagger 13.9 7.8 67 9 17 16.1 99.95     LegendNANA
18:00 Legend Double Dagger 12.3 7.2 71 12 15 16.1 99.92     LegendNANA
19:00 Legend Double Dagger 11.6 6.8 72 10 11 16.1 99.96     LegendNANA
20:00 Legend Double Dagger 11.2 6.8 74 9 9 16.1 99.95     LegendNANA
21:00 Legend Double Dagger 10.9 7.5 79 7 5 16.1 99.88     LegendNANA
22:00 Legend Double Dagger 11.0 7.9 81 8 5 16.1 99.81     LegendNANA
23:00 Legend Double Dagger 11.1 8.6 84 8 11 16.1 99.83     LegendNANA

Notes on Data Quality.

Legend

  • E = Estimated
  • M = Missing
  • NA = Not Available
  • ‡ = Partner data that is not subject to review by the National Climate Archives
Date modified: